Погода в Елани

Погода в Елани : погода сейчас, прогноз погоды и архив. Всё, что Вы хотите узнать о погоде в Елани!

Хотите узнать прогноз погоды в Елани? Тогда Вам сюда: Погода в Елани

Поиск расширенной информации на нашем сайте:

Другие новости

Новости СМИ2

Главная страница сайта

Новости сайта

03.07.2017

Напоминаем, что на нашем специализированном сайте Метеоцентр.Азия вы можете получить высокодетализированные автоматические прогнозы погоды по пунктам России, СНГ и мира в авиационном формате (включающие направление и скорость ветра, видимость, явления погоды, количество и форму облачности, нижнюю и верхнюю границу облачности).


Погода в Елани - сегодня

Время (UTC), дата Ветер
(°,м/с) 
Видим.   Явления Облачность Т
(°С)
Тd
(°С)
f(%) Тe
(°С)
Pmin
(гПа)
dP
(гПа)
Po
(мм)
O2
(г/м3)
Тmin Tmax R s Состояние
почвы
18 17.11.17 220 (ЮЗ) 20000 м    ясно 
-2.1 -2.7 96 -2  1028.9  0.5  759  308           
21 17.11.17 190 (Ю) 4000 м  дымка  ясно 
-3.7 -4.3 96 -3  1029  759  310           
00 18.11.17 210 (ЮЗ) 4000 м  дымка  ясно 
-4.2 -4.8 96 -4  1028.5  -0.5  758  311           
03 18.11.17 140 (ЮВ) 4000 м    ясно 
-5 -5.7 95 -5  1028.1  -0.5  758  312  -5.2         
06 18.11.17 150 (ЮВ) 20000 м    10/0 средняя, верхняя 
[Ac trans|Ci fib]
-3.7 -4.5 94 -3  1028.2  0.2  758  310  -5.2         
09 18.11.17 200 (Ю) 20000 м    10/0 средняя, верхняя 
[Ac trans|Ci fib]
+2 -1.1 80 +1  1027.3  -0.5  758  303           
12 18.11.17 160 (Ю) 20000 м    10/3 1000 м средняя, верхняя 
[Sc|Ac trans|Ci fib]
+2.1 -0.9 81 +1  1026  -1.2  757  303           
15 18.11.17 130 (ЮВ) 20000 м    3/0 средняя 
[Ac trans]
-0 -1.7 88 -1  1025.5  -0.6  756  305    +2.2       
18 18.11.17 140 (ЮВ) 20000 м    8/0 средняя 
[Ac trans]
-0.3 -1.9 89 -1  1024.9  -0.6  756  305           
21 18.11.17 090 (В) 20000 м    10/0 средняя 
[Ac As]
-0.8 -2.3 90 -2  1023.9  -1.1  755  305           
00 19.11.17 090 (В) 20000 м    10/0 средняя 
[Ac trans]
-0 -1.8 88 -1  1022.1  -1.7  754  304           
03 19.11.17 110 (В) 4000 м  слаб. дождь  10/10 100 м 
[Frnb|Ns]
+0.8 +0 94 -2  1020.7  -1.3  753  302  -1.1    0.4     
06 19.11.17 130 (ЮВ) 4000 м  слаб. дождь  10/10 100 м 
[Frnb|Ns]
+1.3 +0.7 96 1020.1  -0.5  753  302           
09 19.11.17 130 (ЮВ) 1000 м  дымка{дождь, морось}  10/10 100 м 
[St]
+2.2 +1.6 96 +1  1018.4  -1.7  751  300           
12 19.11.17 120 (ЮВ) 6-10{11}  4000 м  дымка{дождь, морось}  10/10 100 м 
[St]
+3.3 +2.7 96 1016.5  -1.8  750  298           
15 19.11.17 120 (ЮВ) 5{10}  4000 м  слаб. морось  10/10 100 м 
[St]
+3.6 +3.1 97 +1  1015.8  -0.6  749  298    +3.6  0.4     
18 19.11.17 130 (ЮВ) 4{10}  4000 м  дымка{морось}  10/10 100 м 
[St]
+3.8 +3.2 96 +2  1015.1  -0.7  749  297           
21 19.11.17 140 (ЮВ) 4000 м  дымка{морось}  10/10 100 м 
[St]
+5.3 +4.7 96 +4  1014.8  -0.2  749  295           
00 20.11.17 140 (ЮВ) 20000 м  дымка{морось}  10/0 средняя 
[As trans]
+6 +5.4 96 +5  1014.4  -0.4  749  294           
03 20.11.17 130 (ЮВ) 4000 м  слаб. морось  10/10 100 м 
[St]
+6.1 +5.5 96 +5  1014.2  -0.2  748  294  +3.6    0.0     
06 20.11.17 140 (ЮВ) 2000 м  слаб. морось  10/10 100 м 
[St]
+5.9 +5.3 96 +5  1014.9  0.7  749  295           
09 20.11.17 150 (ЮВ) 4000 м  в посл. час морось  10/10 100 м 
[St]
+6.9 +6.2 95 +6  1013.6  -1.2  748  293           
12 20.11.17 140 (ЮВ) 4000 м  дымка{морось}  10/10 100 м 
[St]
+7.3 +6.5 95 +7  1012.6  -1  747  292           
15 20.11.17 130 (ЮВ) 4000 м  дымка  10/0 средняя 
[Ac As]
+6.7 +6.1 96 +5  1012  -0.6  747  293    +7.4  0.0     
18 20.11.17 120 (ЮВ) 20000 м    10/10 300 м 
[Sc]
+6.1 +4.4 89 +4  1010.9  -1.1  746  293           
Время (UTC), дата Ветер
(°,м/с) 
Видим.   Явления Облачность Т
(°С)
Тd
(°С)
f(%) Тe
(°С)
Pmin
(гПа)
dP
(гПа)
Po
(мм)
O2
(г/м3)
Тmin Tmax R s Состояние
почвы

Для получения пояснительной информации подведите курсор к названию столбца.

ПОГОДА в Елани - архив

Всё, что Вы хотите узнать о погоде в Елани - удобно и подробно!

Выберите нужную дату (начиная с 1 января 2015* года) и нажмите кнопку "Найти".
Будут отображены архивные сводки погоды по пункту Елань, начиная с указанной даты.


Отображать данные в формате CSV (для использования в таблицах Excel)


Внимание! Наш архив погоды предназначен исключительно для личного некоммерческого использования в познавательных целях. Если Вам необходимы официальные справки о состоянии погоды (для производственных, юридических, коммерческих и т.п. целей), обращайтесь в органы Росгидромета.

*Примечание: данная дата относится к архиву по метеостанциям СССР (Россия, СНГ, Балтия).
Архив по метеостанциям Зарубежной Европы и Азии (кроме Китая) хранится 10 дней, по другим регионам земного шара (Китай, Африка, Америка, Австралия, Океания) - 1 день.

Елань - район местоположения метеостанции


Название, широта, долгота, высота метеостанции:
Елань 50.9°ш. 43.7°д. 132 м над ур. моря [Российская Федерация]

Дополнительная информация

В oтличие oт бoльшинства пoгoдных сайтoв мы публикуем пoдрoбную метеoинфoрмацию в детальнoм прoфессиoнальнoм фoрмате.

Характеристики температуры и влажнoсти вoздуха измеряются на высoте 2 м в тени вдали oт зданий и деревьев.
Скoрoсть ветра измеряется на высoте 10 м (на урoвне рoста челoвека скoрoсть ветра ниже в 1.5-2 раза). Если метеoстанция нахoдится в гoрoде или в лесу, тo скoрoсть ветра занижена на 2-4 м/с пo сравнению с oткрытым местoм. Скoрoсть ветра над акватoриями крупных рек и oзёр, а также на вершинах хoлмoв на 2-5 м/с выше, чем в oбычных услoвиях.
Атмoсфернoе давление в разных тoчках местнoсти мoжет значительнo oтличаться oт давления на метеoстанции, в зависимoсти oт услoвий рельефа (при пoдъёме на 10 м давление пoнижается примернo на 1 мм рт.ст.).